FW8825 Weather Reports


time (UTC)temp
C
wind
direction
speed
KPH
gust
KPH
rain 1hr
cm
rain 24hr
cm
rain mn
cm
humidity
%
barometer
mb
20260510211507 6 72 0.0 4.8 0.00 0.00 0.00 68 1015.6
20260510211007 6 72 1.6 4.8 0.00 0.00 0.00 68 1015.6
20260510210507 6 72 1.6 4.8 0.00 0.00 0.00 68 1015.6
20260510210007 6 72 3.2 4.8 0.00 0.00 0.00 67 1015.7
20260510205507 6 72 3.2 6.4 0.00 0.00 0.00 67 1015.7
20260510204507 6 72 4.8 6.4 0.00 0.00 0.00 67 1015.8
20260510204007 6 71 4.8 8.0 0.00 0.00 0.00 67 1015.9
20260510203507 6 72 4.8 8.0 0.00 0.00 0.00 66 1015.9
20260510203007 6 72 4.8 8.0 0.00 0.00 0.00 66 1015.9
20260510202507 6 72 6.4 8.0 0.00 0.00 0.00 66 1016.0
20260510201507 6 74 8.0 12.9 0.00 0.00 0.00 66 1015.9
20260510201007 6 77 8.0 12.9 0.00 0.00 0.00 66 1016.0
20260510200507 7 82 8.0 12.9 0.00 0.00 0.00 66 1016.0
20260510200008 7 80 8.0 14.5 0.00 0.00 0.00 66 1016.0
20260510195507 7 78 8.0 14.5 0.00 0.00 0.00 65 1016.1
20260510195007 7 80 8.0 14.5 0.00 0.00 0.00 65 1016.2
20260510194507 7 79 8.0 16.1 0.00 0.00 0.00 65 1016.2
20260510193006 7 72 11.3 17.7 0.00 0.00 0.00 63 1016.4
20260510192007 8 71 11.3 22.5 0.00 0.00 0.00 62 1016.3
20260510191007 8 68 11.3 19.3 0.00 0.00 0.00 62 1016.3
20260510190507 8 75 12.9 19.3 0.00 0.00 0.00 62 1016.4
20260510190007 8 74 14.5 19.3 0.00 0.00 0.00 63 1016.5
20260510185507 8 69 14.5 24.1 0.00 0.00 0.00 62 1016.5
20260510185007 8 68 14.5 24.1 0.00 0.00 0.00 61 1016.6
20260510184006 8 60 14.5 22.5 0.00 0.00 0.00 62 1016.6
20260510183507 8 70 14.5 20.9 0.00 0.00 0.00 62 1016.7
20260510183007 8 67 16.1 20.9 0.00 0.00 0.00 62 1016.6
20260510182507 9 58 16.1 20.9 0.00 0.00 0.00 62 1016.6
20260510182006 9 63 14.5 24.1 0.00 0.00 0.00 61 1016.6
20260510181007 9 69 12.9 19.3 0.00 0.00 0.00 61 1016.6
20260510180507 9 66 14.5 19.3 0.00 0.00 0.00 61 1016.6
20260510180007 9 63 16.1 24.1 0.00 0.00 0.00 61 1016.5
20260510175507 9 63 16.1 25.7 0.00 0.00 0.00 60 1016.5
20260510175006 10 61 16.1 25.7 0.00 0.00 0.00 60 1016.5
20260510173507 10 67 16.1 27.4 0.00 0.00 0.00 61 1016.6
20260510173006 10 61 16.1 25.7 0.00 0.00 0.00 60 1016.8
20260510172507 10 66 16.1 25.7 0.00 0.00 0.00 60 1016.7
20260510171507 10 68 19.3 27.4 0.00 0.00 0.00 60 1016.8
20260510170507 10 67 14.5 32.2 0.00 0.00 0.00 59 1016.8
20260510170007 10 64 16.1 24.1 0.00 0.00 0.00 60 1016.9
20260510165507 10 58 16.1 27.4 0.00 0.00 0.00 60 1016.9
20260510164507 11 56 16.1 25.7 0.00 0.00 0.00 58 1017.0
20260510164006 10 53 17.7 25.7 0.00 0.00 0.00 58 1017.1
20260510163007 10 71 19.3 25.7 0.00 0.00 0.00 59 1017.3
20260510162506 10 68 19.3 29.0 0.00 0.00 0.00 59 1017.2
20260510162007 10 63 19.3 29.0 0.00 0.00 0.00 58 1017.5
20260510161506 10 65 19.3 32.2 0.00 0.00 0.00 58 1017.4
20260510161006 11 61 17.7 32.2 0.00 0.00 0.00 58 1017.5
20260510160507 10 58 17.7 27.4 0.00 0.00 0.00 59 1017.4
20260510160006 10 66 17.7 27.4 0.00 0.00 0.00 58 1017.6
20260510155507 11 66 16.1 27.4 0.00 0.00 0.00 60 1017.6
20260510155007 11 64 16.1 27.4 0.00 0.00 0.00 57 1017.6
20260510154506 11 59 16.1 27.4 0.00 0.00 0.00 59 1017.8
20260510154007 11 55 17.7 24.1 0.00 0.00 0.00 56 1017.8
20260510153506 11 52 20.9 33.8 0.00 0.00 0.00 57 1017.7
20260510153006 11 49 20.9 33.8 0.00 0.00 0.00 57 1017.8
20260510152507 11 52 19.3 30.6 0.00 0.00 0.00 55 1017.7
20260510152006 11 57 17.7 29.0 0.00 0.00 0.00 55 1017.8
20260510151507 11 62 16.1 27.4 0.00 0.00 0.00 57 1018.0
20260510151007 12 58 17.7 27.4 0.00 0.00 0.00 55 1018.0
20260510150506 12 52 19.3 25.7 0.00 0.00 0.00 55 1018.1
20260510150007 11 61 17.7 32.2 0.00 0.00 0.00 55 1018.1
20260510144506 11 54 17.7 25.7 0.00 0.00 0.00 57 1018.2
20260510144006 11 61 19.3 30.6 0.00 0.00 0.00 56 1018.3
20260510143506 11 60 19.3 37.0 0.00 0.00 0.00 57 1018.3
20260510143007 12 64 19.3 37.0 0.00 0.00 0.00 56 1018.3
20260510142506 11 63 19.3 32.2 0.00 0.00 0.00 55 1018.3
20260510142006 11 59 19.3 32.2 0.00 0.00 0.00 57 1018.5
20260510141506 11 56 19.3 32.2 0.00 0.00 0.00 57 1018.4
20260510141006 12 50 19.3 29.0 0.00 0.00 0.00 56 1018.5
20260510140506 11 49 19.3 27.4 0.00 0.00 0.00 55 1018.3
20260510140007 12 57 19.3 33.8 0.00 0.00 0.00 56 1018.5
20260510135506 11 66 19.3 33.8 0.00 0.00 0.00 57 1018.5
20260510135006 11 65 19.3 30.6 0.00 0.00 0.00 55 1018.5
20260510134506 11 62 20.9 33.8 0.00 0.00 0.00 57 1018.5
20260510133506 11 60 22.5 35.4 0.00 0.00 0.00 58 1018.5
20260510133006 11 56 20.9 35.4 0.00 0.00 0.00 56 1018.7
20260510132506 11 54 19.3 33.8 0.00 0.00 0.00 58 1018.8
20260510132006 11 55 19.3 32.2 0.00 0.00 0.00 57 1018.8
20260510131506 11 57 20.9 32.2 0.00 0.00 0.00 59 1018.8
20260510131006 11 59 20.9 30.6 0.00 0.00 0.00 59 1019.0
20260510130506 11 52 19.3 30.6 0.00 0.00 0.00 59 1019.0
20260510130007 11 43 20.9 30.6 0.00 0.00 0.00 57 1019.1
20260510125506 11 53 20.9 33.8 0.00 0.00 0.00 60 1019.0
20260510125006 11 60 20.9 33.8 0.00 0.00 0.00 60 1019.1
20260510124006 11 51 20.9 38.6 0.00 0.00 0.00 60 1019.2
20260510123506 11 57 20.9 33.8 0.00 0.00 0.00 63 1019.2
20260510122506 11 54 22.5 41.8 0.00 0.00 0.00 62 1019.3
20260510122006 11 47 22.5 41.8 0.00 0.00 0.00 61 1019.5
20260510121506 11 49 20.9 37.0 0.00 0.00 0.00 62 1019.3
20260510121006 11 52 19.3 37.0 0.00 0.00 0.00 62 1019.5
20260510120505 11 50 19.3 37.0 0.00 0.00 0.00 60 1019.6
20260510115505 11 60 22.5 33.8 0.00 0.00 0.00 63 1019.6
20260510114006 11 60 22.5 35.4 0.00 0.00 0.00 62 1019.8
20260510113506 11 66 20.9 35.4 0.00 0.00 0.00 63 1019.8
20260510113006 11 62 19.3 32.2 0.00 0.00 0.00 63 1019.8
20260510112506 11 54 19.3 29.0 0.00 0.00 0.00 63 1019.9
20260510111505 10 57 20.9 30.6 0.00 0.00 0.00 63 1019.9
20260510111005 10 47 19.3 32.2 0.00 0.00 0.00 65 1020.0
20260510110506 10 45 19.3 32.2 0.00 0.00 0.00 63 1020.2
20260510110006 10 53 19.3 32.2 0.00 0.00 0.00 64 1020.2
20260510105506 10 60 19.3 30.6 0.00 0.00 0.00 66 1020.2
20260510105006 10 58 20.9 30.6 0.00 0.00 0.00 67 1020.4
20260510104506 9 54 20.9 30.6 0.00 0.00 0.00 68 1020.3
20260510104006 9 50 20.9 30.6 0.00 0.00 0.00 68 1020.3
20260510103506 9 56 20.9 30.6 0.00 0.00 0.00 67 1020.4
20260510103006 9 57 20.9 29.0 0.00 0.00 0.00 68 1020.3
20260510102506 9 52 20.9 32.2 0.00 0.00 0.00 67 1020.3
20260510102006 9 55 22.5 32.2 0.00 0.00 0.00 68 1020.5
20260510101506 9 51 22.5 32.2 0.00 0.00 0.00 69 1020.3
20260510101005 9 48 20.9 33.8 0.00 0.00 0.00 69 1020.5
20260510100506 9 48 19.3 33.8 0.00 0.00 0.00 69 1020.5
20260510100006 9 46 17.7 32.2 0.00 0.00 0.00 69 1020.5
20260510095505 9 51 17.7 32.2 0.00 0.00 0.00 70 1020.4
20260510095006 9 54 16.1 30.6 0.00 0.00 0.00 72 1020.6
20260510094506 9 48 17.7 30.6 0.00 0.00 0.00 72 1020.6
20260510094006 8 43 17.7 29.0 0.00 0.00 0.00 72 1020.7
20260510093506 8 49 19.3 29.0 0.00 0.00 0.00 73 1020.7
20260510093005 8 52 19.3 32.2 0.00 0.00 0.00 74 1020.6
20260510092505 8 46 19.3 32.2 0.00 0.00 0.00 74 1020.8
20260510092005 8 45 17.7 30.6 0.00 0.00 0.00 74 1020.7
20260510091505 8 49 17.7 30.6 0.00 0.00 0.00 74 1020.8
20260510091005 8 56 19.3 30.6 0.00 0.00 0.00 74 1020.8
20260510090505 8 58 17.7 30.6 0.00 0.00 0.00 74 1020.7
20260510085006 8 45 19.3 25.7 0.00 0.00 0.00 75 1020.8
20260510084506 8 48 19.3 27.4 0.00 0.00 0.00 74 1020.9
20260510084006 8 47 19.3 30.6 0.00 0.00 0.00 74 1020.8
20260510083505 8 44 16.1 30.6 0.00 0.00 0.00 74 1020.9
20260510083006 8 43 16.1 29.0 0.00 0.00 0.00 75 1020.9
20260510082505 8 46 20.9 27.4 0.00 0.00 0.00 76 1020.9
20260510082005 8 47 20.9 33.8 0.00 0.00 0.00 76 1020.9
20260510081505 8 43 19.3 33.8 0.00 0.00 0.00 75 1020.9
20260510081005 8 41 19.3 32.2 0.00 0.00 0.00 76 1020.8
20260510080505 8 43 19.3 33.8 0.00 0.00 0.00 76 1020.8
20260510080006 8 42 20.9 33.8 0.00 0.00 0.00 75 1020.7
20260510075505 8 40 20.9 30.6 0.00 0.00 0.00 76 1020.7
20260510075005 8 44 19.3 33.8 0.00 0.00 0.00 76 1020.7
20260510074505 8 46 19.3 33.8 0.00 0.00 0.00 75 1020.7
20260510074005 8 46 20.9 29.0 0.00 0.00 0.00 76 1020.7
20260510073505 8 49 20.9 32.2 0.00 0.00 0.00 76 1020.6
20260510073006 8 48 20.9 37.0 0.00 0.00 0.00 76 1020.7
20260510072506 8 44 20.9 37.0 0.00 0.00 0.00 76 1020.6
20260510072005 8 47 20.9 33.8 0.00 0.00 0.00 76 1020.7
20260510071505 8 43 20.9 30.6 0.00 0.00 0.00 76 1020.7
20260510070505 7 41 17.7 33.8 0.00 0.00 0.00 77 1020.7
20260510070005 8 33 17.7 33.8 0.00 0.00 0.00 77 1020.7
20260510065505 8 42 19.3 32.2 0.00 0.00 0.00 79 1020.5
20260510065005 7 42 19.3 32.2 0.00 0.00 0.00 79 1020.5
20260510064505 7 36 19.3 30.6 0.00 0.00 0.00 79 1020.6
20260510064005 7 39 19.3 30.6 0.00 0.00 0.00 80 1020.4
20260510063505 7 40 20.9 33.8 0.00 0.00 0.00 80 1020.5
20260510062505 7 42 19.3 35.4 0.00 0.00 0.00 80 1020.4
20260510062006 7 42 17.7 35.4 0.00 0.00 0.00 80 1020.4
20260510061505 7 43 19.3 29.0 0.00 0.00 0.00 81 1020.3
20260510061005 7 48 19.3 30.6 0.00 0.00 0.00 81 1020.4
20260510060505 7 47 17.7 30.6 0.00 0.00 0.00 81 1020.5
20260510060005 7 41 16.1 30.6 0.00 0.00 0.00 81 1020.4
20260510055505 7 38 17.7 27.4 0.00 0.00 0.00 81 1020.5
20260510055005 7 38 19.3 30.6 0.00 0.00 0.00 82 1020.5
20260510054505 7 36 19.3 32.2 0.00 0.00 0.00 82 1020.5
20260510054005 7 36 17.7 32.2 0.00 0.00 0.00 81 1020.5
20260510053505 7 38 19.3 30.6 0.00 0.00 0.00 82 1020.5
20260510053005 8 34 19.3 30.6 0.00 0.00 0.00 82 1020.5
20260510052505 8 37 17.7 30.6 0.00 0.00 0.00 82 1020.6
20260510052005 8 41 17.7 30.6 0.00 0.00 0.00 82 1020.6
20260510051005 8 37 16.1 27.4 0.00 0.00 0.00 82 1020.7
20260510050504 8 37 14.5 25.7 0.00 0.00 0.00 82 1020.7
20260510045505 8 47 16.1 25.7 0.00 0.00 0.00 82 1020.5
20260510045005 8 44 16.1 25.7 0.00 0.00 0.00 82 1020.5
20260510044505 8 44 16.1 25.7 0.00 0.00 0.00 82 1020.6
20260510044004 8 44 17.7 27.4 0.00 0.00 0.00 82 1020.5
20260510043505 8 47 19.3 32.2 0.00 0.00 0.00 81 1020.3
20260510043005 8 50 17.7 32.2 0.00 0.00 0.00 81 1020.4
20260510042505 8 49 16.1 27.4 0.00 0.00 0.00 82 1020.4
20260510041505 8 45 17.7 27.4 0.00 0.00 0.00 82 1020.4
20260510041005 8 45 17.7 33.8 0.00 0.00 0.00 82 1020.5
20260510040005 8 41 16.1 30.6 0.00 0.00 0.00 82 1020.4
20260510035505 8 42 14.5 30.6 0.00 0.00 0.00 82 1020.5
20260510035005 8 39 14.5 24.1 0.00 0.00 0.00 83 1020.5
20260510034505 8 35 16.1 25.7 0.00 0.00 0.00 83 1020.6
20260510034004 8 39 16.1 25.7 0.00 0.00 0.00 83 1020.5
20260510033004 8 44 14.5 24.1 0.00 0.00 0.00 82 1020.6
20260510032505 8 45 16.1 24.1 0.00 0.00 0.00 82 1020.7
20260510032004 8 47 17.7 25.7 0.00 0.00 0.00 82 1020.7
20260510030504 8 35 16.1 30.6 0.00 0.00 0.00 82 1020.9
20260510025505 8 34 14.5 24.1 0.00 0.00 0.00 82 1020.9
20260510025004 8 37 14.5 22.5 0.00 0.00 0.00 83 1020.9
20260510024505 8 36 14.5 22.5 0.00 0.00 0.00 83 1021.0
20260510023505 8 40 14.5 25.7 0.00 0.00 0.00 83 1020.9
20260510023004 8 45 14.5 25.7 0.00 0.00 0.00 83 1021.0
20260510022504 8 46 14.5 25.7 0.00 0.00 0.00 83 1020.9
20260510022004 8 41 14.5 22.5 0.00 0.00 0.00 83 1021.0
20260510021504 8 44 16.1 25.7 0.00 0.00 0.00 83 1021.0
20260510021005 8 44 16.1 25.7 0.00 0.00 0.00 83 1021.0
20260510020005 8 43 16.1 25.7 0.00 0.00 0.00 82 1021.2
20260510015504 8 45 14.5 27.4 0.00 0.00 0.00 83 1021.2
20260510015005 8 45 16.1 27.4 0.00 0.00 0.00 83 1021.2
20260510014506 8 42 16.1 25.7 0.00 0.00 0.00 82 1021.2
20260510014005 8 47 17.7 25.7 0.00 0.00 0.00 82 1021.2
20260510013504 8 50 17.7 27.4 0.00 0.00 0.00 83 1021.1
20260510012504 8 46 14.5 30.6 0.00 0.00 0.00 82 1021.1
20260510012005 8 42 14.5 25.7 0.00 0.00 0.00 83 1021.0
20260510011505 8 38 14.5 27.4 0.00 0.00 0.00 83 1021.1
20260510011005 8 41 12.9 27.4 0.00 0.00 0.00 83 1021.2
20260510010504 8 46 12.9 22.5 0.00 0.00 0.00 84 1021.2
20260510010005 8 48 14.5 22.5 0.00 0.00 0.00 84 1021.1
20260510005504 8 46 14.5 27.4 0.00 0.00 0.00 84 1020.8
20260510004504 8 43 14.5 22.5 0.00 0.00 0.00 84 1020.8
20260510004005 8 51 16.1 22.5 0.00 0.00 0.00 84 1020.8
20260510003505 8 46 17.7 29.0 0.00 0.00 0.00 84 1020.7
20260510003005 8 41 17.7 32.2 0.00 0.00 0.00 83 1020.8
20260510002504 8 41 16.1 32.2 0.00 0.00 0.00 83 1020.8
20260510001504 8 43 14.5 22.5 0.00 0.00 0.00 83 1021.1
20260510001004 8 46 16.1 24.1 0.00 0.00 0.00 83 1021.1
20260510000505 8 45 17.7 29.0 0.00 0.00 0.00 83 1021.1
20260509235504 8 41 17.7 27.4 0.00 0.00 0.00 83 1021.0
20260509235004 8 39 17.7 27.4 0.00 0.00 0.00 83 1020.9
20260509234507 8 37 17.7 30.6 0.00 0.00 0.00 83 1021.1
20260509234007 8 38 17.7 30.6 0.00 0.00 0.00 83 1021.1
20260509233508 8 43 17.7 25.7 0.00 0.00 0.00 83 1021.0
20260509233008 8 47 16.1 29.0 0.00 0.00 0.00 83 1021.2
20260509232507 8 47 14.5 29.0 0.00 0.00 0.00 83 1021.3
20260509232008 8 46 16.1 25.7 0.00 0.00 0.00 83 1021.3
20260509231507 8 46 17.7 29.0 0.00 0.00 0.00 83 1021.2
20260509231007 8 44 17.7 29.0 0.00 0.00 0.00 82 1021.2
20260509230507 8 44 17.7 33.8 0.00 0.00 0.00 82 1021.2
20260509230008 8 41 16.1 33.8 0.00 0.00 0.00 82 1021.1
20260509225507 8 40 14.5 25.7 0.00 0.00 0.00 82 1021.1
20260509225007 8 42 14.5 24.1 0.00 0.00 0.00 82 1021.1
20260509224507 8 43 14.5 22.5 0.00 0.00 0.00 82 1021.2
20260509224007 8 44 16.1 25.7 0.00 0.00 0.00 81 1021.3
20260509223507 8 45 16.1 25.7 0.00 0.00 0.00 81 1021.2
20260509223007 8 41 14.5 25.7 0.00 0.00 0.00 80 1021.3
20260509222007 8 40 11.3 22.5 0.00 0.00 0.00 78 1021.3
20260509221507 9 38 11.3 20.9 0.00 0.00 0.00 78 1021.2
20260509221007 9 42 11.3 20.9 0.00 0.00 0.00 77 1021.2
20260509220507 9 41 11.3 20.9 0.00 0.00 0.00 76 1021.1
20260509220007 9 37 12.9 22.5 0.00 0.00 0.00 76 1021.0
20260509215007 10 44 12.9 20.9 0.00 0.00 0.00 74 1021.0
20260509214007 10 45 16.1 24.1 0.00 0.00 0.00 73 1020.8
20260509213508 10 45 14.5 24.1 0.00 0.00 0.00 72 1020.7
20260509213007 10 42 16.1 25.7 0.00 0.00 0.00 71 1020.5
20260509212507 10 45 16.1 25.7 0.00 0.00 0.00 70 1020.6
20260509212007 10 49 16.1 32.2 0.00 0.00 0.00 69 1020.6